Showing default

GLOBALSTAR M066, 32265

Orbit data source: Space-Track

GLOBALSTAR M066, 32265 is a payload satellite owned by Globalstar (US) in LEO that was launched on Sat, 20 Oct 2007 UTC via a SOYUZ-FG launch vehicle from the Tyuratam Missile And Space Complex (TTMTR). Payload-class satellites include a variety of spacecraft equipped with specific instruments for various scientific and technological missions. These include communications satellites like Starlink; space stations such as the ISS; scientific satellites like the Hubble; Earth observation satellites from companies like Planet Labs, Umbra, and HawkEye 360; GPS; miniature CubeSats for education and research; and military/defense satellites.

Loading next visibility...
Identifier
32265, 2007-048C
Orbit
LEO
Country
Flag of UnknownUnknown / GLOB
Related business
Manufacturer
SS/Loral
Mission
Operational Commercial Communications
Bus & Motor
LS-400, LS-400 AOCS
Mass
450 kg wet, 380 kg dry
Launch date (UTC)
2007-10-20 (18 years ago)
Launch vehicle
SOYUZ-FG
Launch site
Tyuratam Missile And Space Complex (TTMTR)
Object type
Payload
Rocket body
Debris
Shape & HBR
Box + 2 Pan, 6.0 m
Radar Cross Section
5.587 m², Large (>1 m²)

Expand to show TLE details & history
Last TLE update: 19 hours ago

TLE from 19 hours ago
0 GLOBALSTAR M066
1 32265U 07048C   25258.02531495 -.00000101  00000-0 -56390-4 0  9999
2 32265  51.9577 127.8188 0004434 175.1532 326.4402 12.30376690826350
Epoch: 2025-09-15T00:36Z
TLE epoch observation values (Epoch: 2025-09-15T00:36:27.211Z)
Latitude
29.39256°
Longitude
-81.54656°
Altitude
1,546.207 km
Speed
7.098 km/s
True Right ascension
18h 47m 12s
True Declination
29° 15' 37"
Sunlit
Object was in daylight at epoch
Visualization orbit readout
Latitude
Unknown
Longitude
Unknown
Altitude
Unknown
Speed
Unknown
Apparent Right ascension
Unknown
Apparent Declination
Unknown
Sunlit
N/A
Visualization observer readout
Local Sidereal Time
12:32:40
Azimuth
Unknown
Elevation
Unknown
Doppler factor
Unknown
Orbital elements
Apogee altitude
1,551.569 km
Perigee altitude
1,544.54 km
Semi-major axis
7,926.192 km
Eccentricity
0.00044
Inclination
51.9577°
RAAN
127.8188°
Arg. of periapsis
175.1532°
True anomaly
326.4121°
Mean anomaly
326.4402°
Eccentric anomaly
326.42615°
Mean motion
3.07572 °/min
Orbital period
117.05 mins
BSTAR
-0.00005639
Loading maneuver chart data...
Computing Atmospheric mass density...
Loading historical data...
Loading historical data...
Loading historical data...
Loading historical data...
Loading historical data...
Loading historical data...
Loading historical data...
Other satellites on launch #48 in the year 2007 (2007-10-20 UTC)

Documentation

Showing up to 5 results
|